sat.trackr.live / text

‹ back to catalog

STARLINK-3126

NORAD 49444 · 2021-104AN

PAYLOAD ACTIVE UNKNOWN

§ Identity

Operator
Country
US
Launch date
2021-11-13
Launch site
AFETR
Launch vehicle
Mass (kg)
RCS (m²)

Purposes: comms

External: N2YO · Heavens-Above · Gunter

§ Orbital elements

Epoch: 2026-05-24T14:13:31.408032Z

Period
95.44 min
Inclination
53.2146°
Eccentricity
0.0001270
Mean motion
15.08837265 rev/d
Perigee alt
538.9 km
Apogee alt
540.6 km
Semi-major
6,917.9 km
B*
-2.9627e-7
RAAN
228.3896°
Arg perigee
87.3735°
Mean anomaly
272.7403°
Rev number
25,037

§ Raw data

STARLINK-31261 49444U 21104AN  26144.59272463 -.00000293  00000+0 -29627-6 0  99952 49444  53.2146 228.3896 0001270  87.3735 272.7403 15.08837265250376

JSON: /api/v1/satellites/49444 · /tle

For live sub-satellite position, see the globe view (requires WebGL).

§ Visibility from observer

Set your observer location to see the next 7 days of passes ≥ 10°. The values pass through the URL so the page stays shareable.

No JS? Fill the form by hand. The geolocation button needs JavaScript.